Change the Weather History Date:

Monday, December 12, 2011

  Actual Average (KEYE) Record (KEYE)
Temperature  
Mean Temperature 32 °F 32 °F  
Max Temperature 45 °F 39 °F 53 °F (2006)
Min Temperature 19 °F 26 °F 2 °F (2013)
Degree Days  
Heating Degree Days 33 33  
Month to date heating degree days 365  
Since 1 July heating degree days 1389  
Cooling Degree Days 0 0  
Month to date cooling degree days 0  
Year to date cooling degree days 1058  
Moisture  
Dew Point 20 °F    
Average Humidity 65    
Maximum Humidity 90    
Minimum Humidity 33    
Precipitation  
Precipitation 0.00 in 0.08 in 1.02 in (2006)
Month to date precipitation 1.03  
Year to date precipitation 38.74  
Sea Level Pressure  
Sea Level Pressure 30.42 in    
Wind  
Wind Speed 1 mph (SSE)    
Max Wind Speed 6 mph    
Max Gust Speed -    
Visibility 10 miles    
Events      
T = Trace of Precipitation, MM = Missing Value Source: NWS Daily Summary

Daily Weather History Graph

Daily Weather History Graph

Search for Another Location

Airport or City:

Trip Planner

Search our weather history database for the weather conditions in past years. The results will help you decide how hot, cold, wet, or windy it might be!

Date:

Astronomy

Dec. 12, 2011 Rise Set
Actual Time 7:57 AM EST 5:19 PM EST
Civil Twilight 7:26 AM EST 5:50 PM EST
Nautical Twilight 6:52 AM EST 6:24 PM EST
Astronomical Twilight 6:20 AM EST 6:57 PM EST
Moon 7:30 PM EST (12/12) 9:28 AM EST (12/12)
Length of Visible Light 10h 23m
Length of Day
9h 22m
Waning Gibbous, 96% of the Moon is Illuminated
Dec 12
Waning Gibbous
Dec 17
Last Quarter
Dec 24
New
Jan 1
First Quarter
Jan 9
Full

Hourly Weather History & Observations

Time (EST) Temp. Windchill Dew Point Humidity Pressure Visibility Wind Dir Wind Speed Gust Speed Precip Events Conditions
12:15 AM 27.0 °F - 18.0 °F 69% 30.43 in 10.0 mi Calm Calm - N/A   Clear
12:35 AM 25.9 °F - 18.0 °F 72% 30.43 in 10.0 mi Calm Calm - N/A   Clear
12:55 AM 25.3 °F - 18.1 °F 74% 30.43 in 10.0 mi Calm Calm - N/A   Clear
1:15 AM 23.9 °F - 18.3 °F 79% 30.42 in 10.0 mi Calm Calm - N/A   Clear
1:35 AM 24.4 °F - 18.3 °F 78% 30.41 in 10.0 mi Calm Calm - N/A   Clear
2:15 AM 24.6 °F 18.8 °F 18.1 °F 76% 30.41 in 10.0 mi SSE 4.6 mph - N/A   Clear
2:35 AM 24.3 °F - 18.3 °F 78% 30.41 in 10.0 mi Calm Calm - N/A   Clear
2:55 AM 23.4 °F - 18.1 °F 80% 30.42 in 10.0 mi Calm Calm - N/A   Clear
3:15 AM 23.0 °F 18.4 °F 17.8 °F 80% 30.42 in 10.0 mi SSE 3.5 mph - N/A   Clear
3:55 AM 22.6 °F - 18.5 °F 84% 30.42 in 10.0 mi Calm Calm - N/A   Clear
4:15 AM 23.7 °F - 18.1 °F 79% 30.42 in 10.0 mi Calm Calm - N/A   Clear
4:35 AM 22.6 °F - 17.4 °F 80% 30.42 in 10.0 mi Calm Calm - N/A   Clear
4:55 AM 21.2 °F - 17.4 °F 85% 30.41 in 10.0 mi Calm Calm - N/A   Clear
5:15 AM 21.0 °F - 17.4 °F 86% 30.41 in 10.0 mi Calm Calm - N/A   Clear
5:35 AM 20.8 °F - 18.0 °F 89% 30.42 in 10.0 mi Calm Calm - N/A   Clear
5:55 AM 23.2 °F - 16.7 °F 76% 30.42 in 10.0 mi Calm Calm - N/A   Clear
6:15 AM 21.2 °F - 16.9 °F 83% 30.42 in 10.0 mi Calm Calm - N/A   Clear
6:35 AM 21.2 °F - 17.1 °F 84% 30.43 in 10.0 mi Calm Calm - N/A   Clear
6:55 AM 20.8 °F - 16.5 °F 83% 30.43 in 10.0 mi Calm Calm - N/A   Clear
7:15 AM 20.8 °F - 17.1 °F 85% 30.44 in 10.0 mi Calm Calm - N/A   Clear
7:35 AM 20.3 °F - 17.2 °F 88% 30.44 in 10.0 mi Calm Calm - N/A   Clear
7:55 AM 19.6 °F - 16.7 °F 89% 30.44 in 10.0 mi Calm Calm - N/A   Clear
8:15 AM 19.4 °F - 16.7 °F 89% 30.44 in 10.0 mi Calm Calm - N/A   Clear
8:35 AM 20.8 °F - 18.3 °F 90% 30.44 in 10.0 mi Calm Calm - N/A   Clear
8:55 AM 23.9 °F - 21.0 °F 89% 30.45 in 10.0 mi Calm Calm - N/A   Clear
9:15 AM 27.5 °F - 22.5 °F 81% 30.45 in 10.0 mi Calm Calm - N/A   Clear
9:35 AM 30.2 °F - 22.5 °F 73% 30.45 in 10.0 mi Calm Calm - N/A   Clear
9:55 AM 31.1 °F - 21.7 °F 68% 30.46 in 10.0 mi Calm Calm - N/A   Clear
10:15 AM 32.4 °F - 23.5 °F 70% 30.46 in 10.0 mi Calm Calm - N/A   Clear
10:35 AM 34.9 °F - 25.0 °F 67% 30.46 in 10.0 mi Calm Calm - N/A   Clear
10:55 AM 36.7 °F - 24.8 °F 62% 30.45 in 10.0 mi Calm Calm - N/A   Clear
11:15 AM 38.1 °F - 24.4 °F 58% 30.45 in 10.0 mi Calm Calm - N/A   Clear
11:35 AM 39.9 °F - 24.3 °F 54% 30.45 in 10.0 mi Calm Calm - N/A   Clear
11:55 AM 40.8 °F - 21.9 °F 47% 30.44 in 10.0 mi Calm Calm - N/A   Clear
12:15 PM 41.9 °F 40.0 °F 21.9 °F 45% 30.44 in 10.0 mi SE 3.5 mph - N/A   Clear
12:35 PM 42.8 °F 40.1 °F 21.0 °F 42% 30.43 in 10.0 mi SSE 4.6 mph - N/A   Clear
12:55 PM 43.3 °F 40.7 °F 19.4 °F 38% 30.42 in 10.0 mi SSE 4.6 mph - N/A   Clear
1:15 PM 44.1 °F 40.8 °F 19.2 °F 37% 30.41 in 10.0 mi SE 5.8 mph - N/A   Clear
1:35 PM 44.6 °F 42.2 °F 17.4 °F 34% 30.41 in 10.0 mi SSE 4.6 mph - N/A   Clear
1:55 PM 44.6 °F 43.1 °F 18.1 °F 35% 30.41 in 10.0 mi South 3.5 mph - N/A   Clear
2:15 PM 45.0 °F 43.5 °F 17.6 °F 33% 30.41 in 10.0 mi South 3.5 mph - N/A   Clear
2:35 PM 45.5 °F 42.5 °F 19.0 °F 35% 30.40 in 10.0 mi South 5.8 mph - N/A   Clear
2:55 PM 44.2 °F 42.7 °F 19.9 °F 38% 30.39 in 10.0 mi SSE 3.5 mph - N/A   Clear
3:15 PM 45.0 °F 43.5 °F 18.7 °F 35% 30.39 in 10.0 mi SSE 3.5 mph - N/A   Clear
3:35 PM 45.0 °F - 18.3 °F 35% 30.38 in 10.0 mi Calm Calm - N/A   Clear
3:55 PM 45.0 °F 42.6 °F 18.9 °F 35% 30.39 in 10.0 mi SSE 4.6 mph - N/A   Clear
4:15 PM 44.6 °F 43.1 °F 20.3 °F 38% 30.39 in 10.0 mi South 3.5 mph - N/A   Clear
4:35 PM 43.9 °F - 19.8 °F 38% 30.40 in 10.0 mi Calm Calm - N/A   Clear
4:55 PM 41.9 °F 40.0 °F 20.8 °F 43% 30.40 in 10.0 mi SSE 3.5 mph - N/A   Clear
5:15 PM 40.5 °F 38.4 °F 20.1 °F 44% 30.40 in 10.0 mi SSE 3.5 mph - N/A   Clear
5:35 PM 39.2 °F - 19.6 °F 45% 30.40 in 10.0 mi Calm Calm - N/A   Clear
5:55 PM 34.9 °F - 21.4 °F 58% 30.40 in 10.0 mi Calm Calm - N/A   Clear
6:15 PM 34.7 °F - 20.8 °F 57% 30.40 in 10.0 mi Calm Calm - N/A   Clear
6:35 PM 32.9 °F 29.8 °F 20.8 °F 61% 30.41 in 10.0 mi South 3.5 mph - N/A   Clear
6:55 PM 33.1 °F - 21.0 °F 61% 30.41 in 10.0 mi Calm Calm - N/A   Clear
7:15 PM 30.6 °F 25.8 °F 22.8 °F 73% 30.41 in 10.0 mi SE 4.6 mph - N/A   Clear
7:35 PM 35.1 °F 31.0 °F 24.6 °F 66% 30.40 in 10.0 mi SE 4.6 mph - N/A   Scattered Clouds
7:55 PM 34.0 °F - 25.2 °F 70% 30.41 in 10.0 mi Calm Calm - N/A   Mostly Cloudy
8:15 PM 33.8 °F - 25.0 °F 70% 30.41 in 10.0 mi Calm Calm - N/A   Mostly Cloudy
8:35 PM 34.0 °F - 25.0 °F 70% 30.41 in 10.0 mi Calm Calm - N/A   Overcast
8:55 PM 32.0 °F - 25.2 °F 76% 30.40 in 10.0 mi Calm Calm - N/A   Mostly Cloudy
9:15 PM 33.1 °F - 25.7 °F 74% 30.41 in 10.0 mi Calm Calm - N/A   Mostly Cloudy
9:35 PM 31.8 °F - 25.3 °F 77% 30.41 in 10.0 mi Calm Calm - N/A   Scattered Clouds
9:55 PM 31.1 °F - 25.7 °F 80% 30.41 in 10.0 mi Calm Calm - N/A   Clear
10:15 PM 31.1 °F - 25.5 °F 80% 30.41 in 10.0 mi Calm Calm - N/A   Scattered Clouds
10:35 PM 31.1 °F - 25.7 °F 80% 30.42 in 10.0 mi Calm Calm - N/A   Mostly Cloudy
10:55 PM 30.6 °F 27.1 °F 25.2 °F 80% 30.42 in 10.0 mi South 3.5 mph - N/A   Scattered Clouds
11:15 PM 29.1 °F - 24.6 °F 83% 30.42 in 10.0 mi Calm Calm - N/A   Scattered Clouds
11:35 PM 28.8 °F - 25.2 °F 86% 30.42 in 10.0 mi Calm Calm - N/A   Mostly Cloudy
11:55 PM 28.2 °F - 24.8 °F 87% 30.42 in 10.0 mi Calm Calm - N/A   Mostly Cloudy